Weather History for KCDJ - August, 2013

Change the Weather History Date:

Monday, August 19, 2013

  Actual Average (KIRK) Record (KIRK)
Temperature  
Mean Temperature 70 °F 74 °F  
Max Temperature 86 °F 84 °F - ()
Min Temperature 57 °F 63 °F - ()
Degree Days  
Heating Degree Days 0 0  
Month to date heating degree days 0  
Since 1 June heating degree days 17  
Since 1 July heating degree days 1  
Cooling Degree Days 6 9  
Month to date cooling degree days 186  
Year to date cooling degree days 753  
Since 1 June cooling degree days 691  
Growing Degree Days 20 (Base 50)    
Moisture  
Dew Point 60 °F    
Average Humidity 69    
Maximum Humidity 90    
Minimum Humidity 37    
Precipitation  
Precipitation 0.00 in 0.12 in - ()
Month to date precipitation 2.17  
Year to date precipitation 25.76  
Sea Level Pressure  
Sea Level Pressure 30.06 in    
Wind  
Wind Speed 2 mph (South)    
Max Wind Speed 10 mph    
Max Gust Speed -    
T = Trace of Precipitation, MM = Missing Value Source: NWS Daily Summary

Daily Weather History Graph

Daily Weather History Graph

Search for Another Location

Airport or City:

Trip Planner

Search our weather history database for the weather conditions in past years. The results will help you decide how hot, cold, wet, or windy it might be!

Date:

Astronomy

Aug. 19, 2013 Rise Set
Actual Time 6:30 AM CDT 8:04 PM CDT
Civil Twilight 6:01 AM CDT 8:33 PM CDT
Nautical Twilight 5:27 AM CDT 9:07 PM CDT
Astronomical Twilight 4:50 AM CDT 9:43 PM CDT
Moon 6:56 PM CDT (8/19) 4:50 AM CDT (8/19)
Length of Visible Light 14h 31m
Length of Day
13h 34m
Waxing Gibbous, 97% of the Moon is Illuminated
Aug 19
Waxing Gibbous
Aug 20
Full
Aug 28
Last Quarter
Sep 5
New
Sep 12
First Quarter

Hourly Weather History & Observations

Time (CDT) Temp. Heat Index Dew Point Humidity Pressure Visibility Wind Dir Wind Speed Gust Speed Precip Events Conditions
12:52 AM 63.0 °F - 59.0 °F 87% 30.11 in - Calm Calm - N/A   Unknown
1:52 AM 62.1 °F - 57.9 °F 86% 30.10 in - Calm Calm - N/A   Unknown
2:52 AM 61.0 °F - 57.9 °F 90% 30.09 in - Calm Calm - N/A   Unknown
3:52 AM 60.1 °F - 57.0 °F 90% 30.08 in - Calm Calm - N/A   Unknown
4:52 AM 60.1 °F - 57.0 °F 90% 30.09 in - Calm Calm - N/A   Unknown
5:52 AM 59.0 °F - 55.9 °F 90% 30.09 in - Calm Calm - N/A   Unknown
6:52 AM 57.9 °F - 55.0 °F 90% 30.11 in - Calm Calm - N/A   Unknown
7:52 AM 64.0 °F - 61.0 °F 90% 30.11 in - Calm Calm - N/A   Unknown
8:52 AM 70.0 °F - 63.0 °F 78% 30.11 in - South 4.6 mph - N/A   Unknown
9:52 AM 73.9 °F - 64.0 °F 71% 30.11 in - South 4.6 mph - N/A   Unknown
10:52 AM 78.1 °F - 66.0 °F 66% 30.11 in - South 4.6 mph - N/A   Unknown
11:52 AM 81.0 °F 82.5 °F 64.0 °F 56% 30.10 in - Variable 6.9 mph - N/A   Unknown
12:52 PM 82.0 °F 82.4 °F 60.1 °F 47% 30.07 in - SW 5.8 mph - N/A   Unknown
1:52 PM 84.0 °F 83.8 °F 59.0 °F 43% 30.06 in - SSW 6.9 mph - N/A   Unknown
2:52 PM 84.9 °F 84.2 °F 57.9 °F 40% 30.04 in - South 9.2 mph - N/A   Unknown
3:52 PM 84.9 °F 84.2 °F 57.9 °F 40% 30.02 in - South 10.4 mph - N/A   Unknown
4:52 PM 84.9 °F 83.7 °F 55.9 °F 37% 30.01 in - South 8.1 mph - N/A   Unknown
5:52 PM 84.0 °F 83.8 °F 59.0 °F 43% 30.00 in - SSW 6.9 mph - N/A   Unknown
6:52 PM 82.0 °F 83.0 °F 62.1 °F 51% 30.00 in - South 5.8 mph - N/A   Unknown
7:52 PM 77.0 °F - 63.0 °F 62% 30.01 in - Calm Calm - N/A   Unknown
8:52 PM 72.0 °F - 63.0 °F 73% 30.01 in - Calm Calm - N/A   Unknown
9:52 PM 69.1 °F - 63.0 °F 81% 30.03 in - Calm Calm - N/A   Unknown
10:52 PM 68.0 °F - 62.1 °F 81% 30.02 in - Calm Calm - N/A   Unknown
11:52 PM 68.0 °F - 62.1 °F 81% 30.02 in - Calm Calm - N/A   Unknown